Location: Aldenham
(51.6667°N, 0.3500°W)
Time: 18:30:36
(UTC+00:00)

Altair - Pass Details

Date: 17 February 2026
Orbit: 1502 x 1682 km, 47.2° (Epoch: 10 March)

Event Time Altitude Azimuth Distance (km) Brightness Sun altitude
Rises 03:23:29 0° 193° (SSW) 4,622 - -35.2°
Reaches altitude 10° 03:27:19 10° 179° (S) 3,651 - -34.7°
Exits shadow 03:29:51 17° 165° (SSE) 3,160 9.0 -34.4°
Maximum altitude 03:33:51 22° 133° (SE) 2,835 9.0 -33.8°
Drops below altitude 10° 03:40:28 10° 87° (E) 3,724 10.2 -32.9°
Sets 03:44:24 0° 74° (ENE) 4,738 11.2 -32.3°
